When you browse on this site, cookies collect data to enhance your experience and personalize the content and advertising you see.
Visit our Privacy Policy to learn more. By continuing to use the site, you agree to this use of cookies and data.

Stündliche Wetter Cayambe

Heute, 16 Juli, Donnerstag

Zeit Temperatur Niederschläge Wind Luftdruck Luftfeuchtigkeit
00:00 +8°C° 0 mm 3 m/S 529 mmHg 88%
01:00 +8°C° 0 mm 3 m/S 529 mmHg 89%
02:00 +8°C° 0 mm 3 m/S 528 mmHg 89%
03:00 +8°C° 0 mm 3 m/S 528 mmHg 89%
04:00 +7°C° 0 mm 3 m/S 528 mmHg 89%
05:00 +8°C° 0 mm 3 m/S 528 mmHg 88%
06:00 +8°C° 0 mm 3 m/S 528 mmHg 88%
07:00 +8°C° 0 mm 3 m/S 529 mmHg 87%
08:00 +10°C° 0 mm 3 m/S 530 mmHg 80%
09:00 +12°C° 0 mm 3 m/S 531 mmHg 72%
10:00 +13°C° 0 mm 3 m/S 532 mmHg 64%
11:00 +14°C° 0.1 mm 3 m/S 532 mmHg 63%
12:00 +14°C° 0.1 mm 3 m/S 532 mmHg 62%
13:00 +16°C° 0.1 mm 3 m/S 532 mmHg 61%
14:00 +16°C° 0.1 mm 3 m/S 531 mmHg 61%
15:00 +16°C° 0.1 mm 3 m/S 531 mmHg 62%
16:00 +16°C° 0.1 mm 3 m/S 530 mmHg 63%
17:00 +13°C° 0.1 mm 3 m/S 530 mmHg 71%
18:00 +12°C° 0.1 mm 2 m/S 529 mmHg 79%
19:00 +9°C° 0.1 mm 2 m/S 528 mmHg 87%
20:00 +9°C° 0 mm 2 m/S 528 mmHg 85%
21:00 +8°C° 0 mm 3 m/S 528 mmHg 84%
22:00 +7°C° 0 mm 3 m/S 528 mmHg 83%
23:00 +7°C° 0 mm 3 m/S 528 mmHg 81%

Morgen, 17 Juli, Freitag

Zeit Temperatur Niederschläge Wind Luftdruck Luftfeuchtigkeit
00:00 +7°C° 0 mm 3 m/S 528 mmHg 79%
01:00 +7°C° 0 mm 3 m/S 528 mmHg 77%
02:00 +5°C° 0 mm 3 m/S 527 mmHg 75%
03:00 +5°C° 0 mm 3 m/S 527 mmHg 73%
04:00 +5°C° 0 mm 3 m/S 527 mmHg 71%
05:00 +5°C° 0 mm 3 m/S 527 mmHg 71%
06:00 +7°C° 0 mm 3 m/S 528 mmHg 71%
07:00 +7°C° 0 mm 3 m/S 528 mmHg 70%
08:00 +10°C° 0 mm 3 m/S 530 mmHg 63%
09:00 +12°C° 0 mm 3 m/S 531 mmHg 56%
10:00 +15°C° 0 mm 4 m/S 533 mmHg 48%
11:00 +17°C° 0 mm 4 m/S 533 mmHg 48%
12:00 +17°C° 0 mm 4 m/S 533 mmHg 47%
13:00 +18°C° 0 mm 4 m/S 533 mmHg 46%
14:00 +18°C° 0.1 mm 4 m/S 532 mmHg 49%
15:00 +17°C° 0.1 mm 4 m/S 532 mmHg 52%
16:00 +17°C° 0.1 mm 3 m/S 531 mmHg 55%
17:00 +13°C° 0.1 mm 3 m/S 530 mmHg 65%
18:00 +11°C° 0.1 mm 3 m/S 529 mmHg 75%
19:00 +9°C° 0.1 mm 2 m/S 528 mmHg 85%
20:00 +8°C° 0 mm 3 m/S 528 mmHg 85%
21:00 +8°C° 0 mm 3 m/S 528 mmHg 85%
22:00 +8°C° 0 mm 3 m/S 529 mmHg 85%
23:00 +7°C° 0 mm 3 m/S 528 mmHg 84%

übermorgen, 18 Juli, Samstag

Zeit Temperatur Niederschläge Wind Luftdruck Luftfeuchtigkeit
00:00 +7°C° 0 mm 3 m/S 528 mmHg 84%
01:00 +7°C° 0 mm 3 m/S 528 mmHg 84%
02:00 +7°C° 0 mm 3 m/S 528 mmHg 84%
03:00 +7°C° 0 mm 3 m/S 527 mmHg 84%
04:00 +7°C° 0 mm 3 m/S 527 mmHg 84%
05:00 +7°C° 0 mm 3 m/S 527 mmHg 83%
06:00 +8°C° 0 mm 3 m/S 528 mmHg 82%
07:00 +8°C° 0 mm 3 m/S 528 mmHg 81%
08:00 +9°C° 0 mm 3 m/S 529 mmHg 77%
09:00 +10°C° 0 mm 3 m/S 530 mmHg 73%
10:00 +11°C° 0 mm 3 m/S 531 mmHg 69%
11:00 +11°C° 0 mm 3 m/S 530 mmHg 69%
12:00 +11°C° 0 mm 3 m/S 530 mmHg 69%
13:00 +12°C° 0 mm 3 m/S 530 mmHg 68%
14:00 +12°C° 0 mm 3 m/S 530 mmHg 68%
15:00 +12°C° 0 mm 3 m/S 529 mmHg 67%
16:00 +13°C° 0 mm 3 m/S 529 mmHg 66%
17:00 +11°C° 0 mm 3 m/S 529 mmHg 72%
18:00 +10°C° 0 mm 2 m/S 528 mmHg 78%
19:00 +9°C° 0 mm 2 m/S 528 mmHg 84%
20:00 +9°C° 0 mm 2 m/S 528 mmHg 84%
21:00 +9°C° 0 mm 2 m/S 528 mmHg 84%
22:00 +8°C° 0 mm 2 m/S 529 mmHg 83%
23:00 +8°C° 0 mm 2 m/S 528 mmHg 84%

19 Juli, Sonntag

Zeit Temperatur Niederschläge Wind Luftdruck Luftfeuchtigkeit
00:00 +8°C° 0 mm 2 m/S 528 mmHg 85%
01:00 +7°C° 0 mm 2 m/S 528 mmHg 85%
02:00 +8°C° 0 mm 2 m/S 528 mmHg 85%
03:00 +8°C° 0 mm 2 m/S 528 mmHg 85%
04:00 +8°C° 0 mm 2 m/S 528 mmHg 85%
05:00 +8°C° 0 mm 2 m/S 528 mmHg 85%
06:00 +9°C° 0 mm 2 m/S 528 mmHg 85%
07:00 +9°C° 0 mm 2 m/S 529 mmHg 84%
08:00 +10°C° 0 mm 3 m/S 529 mmHg 80%
09:00 +11°C° 0 mm 3 m/S 530 mmHg 76%
10:00 +12°C° 0 mm 3 m/S 531 mmHg 71%
11:00 +13°C° 0.1 mm 3 m/S 531 mmHg 69%
12:00 +13°C° 0.1 mm 3 m/S 531 mmHg 67%
13:00 +14°C° 0.1 mm 3 m/S 531 mmHg 65%
14:00 +14°C° 0.1 mm 3 m/S 531 mmHg 65%
15:00 +14°C° 0.1 mm 3 m/S 530 mmHg 65%
16:00 +14°C° 0.1 mm 3 m/S 530 mmHg 65%
17:00 +13°C° 0.1 mm 2 m/S 529 mmHg 72%
18:00 +12°C° 0.1 mm 2 m/S 529 mmHg 80%
19:00 +9°C° 0.1 mm 2 m/S 528 mmHg 88%
20:00 +10°C° 0 mm 2 m/S 528 mmHg 87%
21:00 +10°C° 0 mm 2 m/S 529 mmHg 86%
22:00 +10°C° 0 mm 2 m/S 529 mmHg 85%
23:00 +9°C° 0 mm 2 m/S 529 mmHg 87%

20 Juli, Montag

Zeit Temperatur Niederschläge Wind Luftdruck Luftfeuchtigkeit
00:00 +9°C° 0 mm 2 m/S 529 mmHg 88%
01:00 +9°C° 0 mm 2 m/S 528 mmHg 89%
02:00 +9°C° 0 mm 2 m/S 528 mmHg 89%
03:00 +9°C° 0 mm 2 m/S 528 mmHg 88%
04:00 +9°C° 0 mm 2 m/S 528 mmHg 88%
05:00 +9°C° 0 mm 2 m/S 528 mmHg 88%
06:00 +9°C° 0 mm 2 m/S 528 mmHg 88%
07:00 +9°C° 0 mm 2 m/S 528 mmHg 87%
08:00 +10°C° 0 mm 2 m/S 529 mmHg 83%
09:00 +12°C° 0 mm 2 m/S 530 mmHg 78%
10:00 +13°C° 0 mm 2 m/S 531 mmHg 73%
11:00 +13°C° 0.2 mm 2 m/S 531 mmHg 73%
12:00 +14°C° 0.2 mm 2 m/S 531 mmHg 74%
13:00 +14°C° 0.2 mm 2 m/S 531 mmHg 74%
14:00 +14°C° 0.2 mm 2 m/S 530 mmHg 75%
15:00 +13°C° 0.2 mm 2 m/S 530 mmHg 76%
16:00 +13°C° 0.2 mm 2 m/S 529 mmHg 77%
17:00 +13°C° 0.2 mm 2 m/S 529 mmHg 81%
18:00 +12°C° 0.2 mm 2 m/S 529 mmHg 85%
19:00 +10°C° 0.2 mm 2 m/S 528 mmHg 89%
20:00 +10°C° 0.1 mm 2 m/S 529 mmHg 89%
21:00 +10°C° 0.1 mm 2 m/S 529 mmHg 89%
22:00 +10°C° 0.1 mm 2 m/S 529 mmHg 89%
23:00 +9°C° 0 mm 2 m/S 529 mmHg 89%

21 Juli, Dienstag

Zeit Temperatur Niederschläge Wind Luftdruck Luftfeuchtigkeit
00:00 +9°C° 0 mm 2 m/S 529 mmHg 89%
01:00 +10°C° 0 mm 1 m/S 528 mmHg 90%
02:00 +10°C° 0.1 mm 1 m/S 528 mmHg 90%
03:00 +10°C° 0.1 mm 1 m/S 528 mmHg 90%
04:00 +10°C° 0.1 mm 1 m/S 528 mmHg 90%
05:00 +9°C° 0.1 mm 2 m/S 528 mmHg 90%
06:00 +9°C° 0.1 mm 2 m/S 529 mmHg 89%
07:00 +9°C° 0.1 mm 2 m/S 529 mmHg 89%
08:00 +10°C° 0.1 mm 2 m/S 530 mmHg 85%
09:00 +12°C° 0.1 mm 2 m/S 530 mmHg 81%
10:00 +13°C° 0.1 mm 2 m/S 531 mmHg 77%
11:00 +13°C° 0.2 mm 2 m/S 531 mmHg 75%
12:00 +14°C° 0.2 mm 2 m/S 531 mmHg 73%
13:00 +14°C° 0.2 mm 2 m/S 531 mmHg 71%
14:00 +14°C° 0.2 mm 2 m/S 530 mmHg 75%
15:00 +13°C° 0.2 mm 2 m/S 530 mmHg 79%
16:00 +12°C° 0.2 mm 2 m/S 529 mmHg 83%
17:00 +10°C° 0.1 mm 2 m/S 528 mmHg 85%
18:00 +10°C° 0.1 mm 2 m/S 528 mmHg 88%
19:00 +9°C° 0.1 mm 2 m/S 528 mmHg 90%
20:00 +9°C° 0 mm 2 m/S 529 mmHg 89%
21:00 +9°C° 0 mm 2 m/S 529 mmHg 88%
22:00 +9°C° 0 mm 2 m/S 529 mmHg 87%
23:00 +9°C° 0 mm 2 m/S 529 mmHg 87%
Mehr zeigen